Location: College Rock
(37.2713°N, 119.1740°W)
Time: 12:33:45
(UTC+00:00)

CZ-4B R/B - Pass Details

Date: 29 October 2020
Orbit: 495 x 648 km, 97.8° (Epoch: 01 December)

Event Time Altitude Azimuth Distance (km) Brightness Sun altitude
Rises 12:54:58 0° 8° (N) 2,835 7.5 -17.2°
Reaches altitude 10° 12:57:12 10° 6° (N) 1,904 6.6 -16.8°
Maximum altitude 13:01:16 64° 285° (WNW) 623 3.8 -16.0°
Drops below altitude 10° 13:05:07 10° 204° (SSW) 1,799 6.3 -15.2°
Sets 13:07:11 0° 201° (SSW) 2,663 7.2 -14.8°
